Regional Weather Roundup
Issued by NWS Glasgow, MT

Home | Current Version | Previous Version | Text Only | Print | Product List | Glossary On
Versions: 1 2 3 4 5 6 7 8 9 10 11 12 13 14 15 16 17 18 19 20 21 22 23 24 25 26 27 28 29 30 31 32 33 34 35 36 37 38 39 40 41 42 43 44 45 46 47 48 49 50
000
ASUS45 KGGW 301415
RWRGGW
HOURLY REGIONAL WEATHER ROUNDUP FOR NORTHEAST MONTANA
NATIONAL WEATHER SERVICE GLASGOW MONTANA
800 AM MDT THU JUL 30 2015

NOTE: "FAIR" INDICATES FEW OR NO CLOUDS BELOW 12,000 FEET WITH NO
SIGNIFICANT WEATHER AND/OR OBSTRUCTIONS TO VISISBILITY.

NORTHEAST MONTANA


CITY           SKY/WX    TMP DP  RH WIND       PRES   REMARKS
GLASGOW        SUNNY     62  54  74 CALM      30.19R
PLENTYWOOD       N/A     58  51  78 W3          N/A
WOLF POINT     SUNNY     62  54  74 CALM      30.19R
JORDAN           N/A     63  48  58 W5        30.21R
WINNETT          N/A     60  47  61 S2          N/A
SIDNEY         SUNNY     63  54  72 CALM      30.18R
GLENDIVE       SUNNY     63  50  63 S6        30.19S
MALTA            N/A     57  53  86 SW3         N/A
SCOBEY           N/A     56  50  80 CALM      30.17

FORT PECK REPORTS


CITY           SKY/WX    TMP DP  RH WIND       PRES   REMARKS
FORT PECK        N/A     63  55  75 NW3         N/A
THE PINES        N/A     66  49  54 NW3         N/A

SOUTHEAST MONTANA


CITY           SKY/WX    TMP DP  RH WIND       PRES   REMARKS
BILLINGS       SUNNY     60  41  49 SW14      30.30R
MILES CITY     SUNNY     64  47  53 CALM      30.22R
BAKER          SUNNY     72  42  34 W8        30.22R
LIVINGSTON     SUNNY     54  43  66 NW7       30.35S

CENTRAL MONTANA


CITY           SKY/WX    TMP DP  RH WIND       PRES   REMARKS
HAVRE          SUNNY     58  51  78 W5        30.24R
LEWISTOWN      SUNNY     62  44  51 CALM      30.31R
GREAT FALLS    SUNNY     62  43  49 SW12      30.28S
CUT BANK       SUNNY     58  40  51 W6        30.28S
HELENA         SUNNY     59  45  59 CALM      30.33S
BUTTE          SUNNY     47  39  74 SE3       30.42R
BOZEMAN        SUNNY     57  45  64 CALM      30.36R

WESTERN MONTANA


CITY           SKY/WX    TMP DP  RH WIND       PRES   REMARKS
MISSOULA       SUNNY     56  45  66 CALM      30.33R
KALISPELL      NOT AVBL

NORTH DAKOTA


CITY           SKY/WX    TMP DP  RH WIND       PRES   REMARKS
WILLISTON      SUNNY     64  54  69 NE5       30.18R
DICKINSON      SUNNY     65  48  54 W10       30.17S
MINOT          SUNNY     69  51  52 W15       30.11R
BISMARCK       SUNNY     65  50  58 W7        30.15S

SOUTHERN SASKATCHEWAN


CITY           SKY/WX    TMP DP  RH WIND       PRES   REMARKS
REGINA         MOSUNNY   61  55  82 W9        30.14R
MOOSE JAW      MOSUNNY   63  55  77 NW14      30.17R
ESTEVAN        SUNNY     63  54  72 NW14      30.13R
SWIFT CURRENT  MOSUNNY   59  52  77 W8        30.22R



USA.gov is the U.S. government's official web portal to all federal, state and local government web resources and services.